THOR ABLESTAR DEB, 336

Orbit data source: Space-Track

THOR ABLESTAR DEB, 336 is space debris in LEO originally from a launch on Thu, 29 Jun 1961 UTC launched from the Air Force Eastern Test Range (AFETR). Debris objects in space refer to the collection of defunct objects orbiting the Earth. Examples of debris include non-operational satellites, rocket bodies, and fragments generated from explosions, collisions, or faulty payload assembly.

Loading next visibility...
THOR ABLESTAR DEB details
Identifier
336, 1961-015DN
Orbit
LEO
Last TLE update1 day ago
Origin
Flag of USUSAF SSD (US)
ManufacturerUnknown
MissionSpacecraft
Bus & MotorUnknown
MassUnknown
Launch date (UTC)
1961-06-29 (64 years ago)
Launch vehicleUnknown
Launch site
Air Force Eastern Test Range (AFETR)
Object type
Payload
Rocket body
Debris
Shape & HBRUnknown
Radar Cross SectionSmall (<0.1 m²)

Expand to show TLE details & history

TLE from 1 day ago
0 THOR ABLESTAR DEB
1 00336U 61015DN  25022.18384395  .00000214  00000-0  32241-3 0  9999
2 00336  67.0315 305.5721 0074496 144.9756   4.3915 13.69012690169246
Epoch: 2025-01-22T04:24Z
Definitive object data (Epoch: 2025-01-22T04:24:44.117Z)
Latitude27.97592°
Longitude-75.33211°
Altitude950.896 km
Speed7.407 km/s
True Right ascension07h 30m 31s
True Declination27° 50' 15"
Sunlit
Object was in full shadow at TLE epoch
Visualization TLE readout
Latitude-14.40755°
Longitude-59.42905°
Altitude973.696 km
Speed7.382 km/s
Apparent Right ascension06h 27m 38s
Apparent Declination-32° 31' 42"
Sunlit
Object is in full shadow
Visualization observer readout
Local Sidereal Time15:08:58
Azimuth264.467° W
Elevation-49.781°
Doppler factor1
Orbital elements
Apogee altitude1,056.477 km
Perigee altitude946.527 km
Semi-major axis7,379.639 km
Eccentricity0.0074496
Inclination67.0315°
RAAN305.5721°
Arg. of periapsis144.9756°
True anomaly4.45748°
Mean anomaly4.3915°
Eccentric anomaly4.42443°
Mean motion3.42366 °/min
BSTAR0.00032241
Orbital period105.15 mins
Loading maneuver chart data...

THOR ABLESTAR DEB Visibility forecast

Observer location: undefined°, undefined

Span
Click to sort rows by Start time (UTC) header in descending order
Start Az.
Max El. time (UTC)
Max El. Az.
Max El.
End time (UTC)
End Az.
5 mins2025-01-23 18:23:49.727Z126.239° SE2025-01-23 18:26:49.727Z98.418° ESE12.894°2025-01-23 18:28:49.727Z79.61° E
11 mins2025-01-23 20:08:49.727Z204.974° SW2025-01-23 20:13:49.727Z97.65° ESE44.946°2025-01-23 20:19:49.727Z29.579° NE
7 mins2025-01-23 21:59:49.727Z285.008° WNW2025-01-23 22:02:49.727Z318.353° NNW18.764°2025-01-23 22:06:49.727Z359.529° N
6 mins2025-01-24 03:34:49.727Z12.065° NNE2025-01-24 03:37:49.727Z46.182° ENE17.39°2025-01-24 03:40:49.727Z78.16° E
10 mins2025-01-24 05:21:49.727Z331.115° NNW2025-01-24 05:26:49.727Z158.15° S44.574°2025-01-24 05:31:49.727Z153.556° SSE
|